Location: Unnamed
(40.4914°N, 3.3751°W)
Time: 14:26:49
(UTC+02:00)

ISS - Visible Passes

Search period start: 01 October 2022 00:00
Search period end: 11 October 2022 00:00
Orbit: 414 x 417 km, 51.6° (Epoch: 01 October)

Date Brightness Start Highest point End Pass type
(mag) Time Alt. Az. Time Alt. Az. Time Alt. Az.
01 Oct -2.1 20:30:39 10° NNW 20:33:22 22° NNE 20:35:58 11° ENE visible
01 Oct -1.8 22:07:00 10° WNW 22:08:51 29° WNW 22:08:51 29° WNW visible
02 Oct -3.8 21:18:10 10° NW 21:21:32 72° NE 21:22:08 54° E visible
03 Oct -3.2 20:29:24 10° NW 20:32:37 42° NNE 20:35:29 12° ESE visible
03 Oct -1.3 22:06:31 10° W 22:08:23 20° WSW 22:08:23 20° WSW visible
04 Oct -2.6 21:17:15 10° WNW 21:20:25 39° SW 21:21:50 25° S visible
05 Oct -3.6 20:28:13 10° WNW 20:31:34 72° SW 20:34:54 10° SE visible
06 Oct -0.9 21:17:08 10° W 21:18:59 14° SW 21:20:49 10° SSW visible
07 Oct -1.5 20:27:24 10° WNW 20:30:12 25° SW 20:32:58 10° S visible
